Date String (YYYY-MM-DD hh:mm:ss) UTC,Instrument flags,Ambient pressure (hPa),Sample flow (lpm),Bypass flow (lpm),Sample temperature (°C),Ambient temperature (°C),ASC tube jacket temperature (°C),LED temperature (°C),Box temperature (°C),Sample RH (%),Span deviation,Mass concentration (μg/m³),Mass concentration (μg/m³),Mass concentration (μg/m³)
DateTimeUTC,F1_M11,P_M11,Q1_M11,Q2_M11,T1_M11,T2_M11,T3_M11,T4_M11,T5_M11,U1_M11,ZSPAN_M11,X2_M11,X0_M11,X1_M11
2021-12-08 14:00:00,,0819.4,4.99,0.00,22.4,21.6,00.0,31.4,24.1,11.8,0000.0,0004.64,0014.91,0002.91
2021-12-08 14:01:00,,0819.4,5.01,0.00,22.4,21.6,00.0,31.4,24.1,11.7,0000.0,0004.66,0015.26,0002.93
2021-12-08 14:02:00,,0819.4,4.99,0.00,22.4,22.0,00.0,31.4,24.2,11.6,0000.0,0004.67,0014.39,0002.96
2021-12-08 14:03:00,,0819.3,5.01,0.00,22.5,22.6,00.0,31.4,24.4,11.5,0000.0,0004.69,0015.08,0002.99
2021-12-08 14:04:00,,0819.2,5.00,0.00,22.6,23.2,00.0,31.5,24.6,11.5,0000.0,0004.72,0015.70,0002.99
2021-12-08 14:05:00,,0819.2,5.00,0.00,22.7,23.1,00.0,31.5,24.7,11.5,0000.0,0004.75,0016.24,0003.00
2021-12-08 14:06:00,,0819.2,4.99,0.00,22.7,22.9,00.0,31.5,24.7,11.4,0000.0,0004.69,0017.23,0002.97
2021-12-08 14:07:00,,0819.3,5.01,0.00,22.7,22.7,00.0,31.5,24.6,11.3,0000.0,0004.65,0017.36,0002.95
2021-12-08 14:08:00,,0819.3,5.01,0.00,22.7,22.5,00.0,31.6,24.6,11.4,0000.0,0004.59,0016.86,0002.93
2021-12-08 14:09:00,,0819.2,5.00,0.00,22.7,22.4,00.0,31.6,24.5,11.5,0000.0,0004.59,0017.52,0002.93
2021-12-08 14:10:00,,0819.3,4.99,0.00,22.7,22.3,00.0,31.6,24.5,11.5,0000.0,0004.60,0017.29,0002.91
2021-12-08 14:11:00,,0819.3,5.00,0.00,22.7,22.2,00.0,31.6,24.5,11.5,0000.0,0004.61,0017.25,0002.90
2021-12-08 14:12:00,,0819.3,5.00,0.00,22.7,22.2,00.0,31.6,24.5,11.5,0000.0,0004.64,0017.55,0002.90
2021-12-08 14:13:00,,0819.2,5.00,0.00,22.7,22.1,00.0,31.6,24.5,11.5,0000.0,0004.67,0017.74,0002.91
2021-12-08 14:14:00,,0819.3,5.00,0.00,22.7,22.1,00.0,31.6,24.5,11.5,0000.0,0004.71,0017.06,0002.92
2021-12-08 14:15:00,,0819.4,4.99,0.00,22.6,22.0,00.0,31.6,24.4,11.5,0000.0,0004.71,0016.28,0002.92
2021-12-08 14:16:00,,0819.4,5.00,0.00,22.6,21.9,00.0,31.6,24.3,11.4,0000.0,0004.69,0016.29,0002.91
2021-12-08 14:17:00,,0819.3,4.98,0.00,22.6,21.8,00.0,31.6,24.2,11.4,0000.0,0004.71,0015.77,0002.91
2021-12-08 14:18:00,,0819.3,5.02,0.00,22.5,21.7,00.0,31.6,24.1,11.3,0000.0,0004.73,0015.74,0002.91
2021-12-08 14:19:00,,0819.1,5.00,0.00,22.4,21.7,00.0,31.5,24.0,11.4,0000.0,0004.68,0016.08,0002.87
2021-12-08 14:20:00,,0819.2,5.00,0.00,22.4,21.7,00.0,31.5,24.1,11.4,0000.0,0004.66,0015.95,0002.82
2021-12-08 14:21:00,,0819.3,5.00,0.00,22.4,21.6,00.0,31.5,24.0,11.4,0000.0,0004.61,0016.11,0002.78
2021-12-08 14:22:00,,0819.3,5.00,0.00,22.4,21.6,00.0,31.5,24.0,11.5,0000.0,0004.49,0016.17,0002.74
2021-12-08 14:23:00,,0819.4,5.01,0.00,22.3,21.5,00.0,31.5,23.9,11.5,0000.0,0004.47,0016.20,0002.71
2021-12-08 14:24:00,,0819.4,5.00,0.00,22.3,21.5,00.0,31.5,23.9,11.5,0000.0,0004.43,0016.34,0002.67
2021-12-08 14:25:00,,0819.4,4.99,0.00,22.3,21.5,00.0,31.4,24.0,11.5,0000.0,0004.44,0016.65,0002.65
2021-12-08 14:26:00,,0819.4,5.00,0.00,22.3,21.5,00.0,31.4,24.0,11.5,0000.0,0004.37,0016.84,0002.62
2021-12-08 14:27:00,,0819.3,5.01,0.00,22.3,21.5,00.0,31.4,24.1,11.5,0000.0,0004.35,0016.36,0002.59
2021-12-08 14:28:00,,0819.3,4.99,0.00,22.3,21.6,00.0,31.4,24.1,11.6,0000.0,0004.38,0015.91,0002.59
2021-12-08 14:29:00,,0819.2,5.00,0.00,22.3,21.6,00.0,31.4,24.1,11.6,0000.0,0004.41,0015.76,0002.60
2021-12-08 14:30:00,,0819.3,5.01,0.00,22.3,21.6,00.0,31.4,24.0,11.7,0000.0,0004.46,0015.19,0002.63
2021-12-08 14:31:00,,0819.3,4.98,0.00,22.3,21.5,00.0,31.4,24.0,11.7,0000.0,0004.44,0014.96,0002.65
2021-12-08 14:32:00,,0819.2,5.01,0.00,22.3,21.5,00.0,31.4,24.0,11.6,0000.0,0004.42,0015.31,0002.66
2021-12-08 14:33:00,,0819.3,5.00,0.00,22.3,21.5,00.0,31.4,24.0,11.6,0000.0,0004.44,0015.80,0002.66
2021-12-08 14:34:00,,0819.3,5.00,0.00,22.3,21.5,00.0,31.3,24.0,11.7,0000.0,0004.42,0015.60,0002.66
2021-12-08 14:35:00,,0819.3,5.00,0.00,22.3,21.6,00.0,31.3,24.0,11.7,0000.0,0004.42,0015.45,0002.66
2021-12-08 14:36:00,,0819.3,5.00,0.00,22.3,21.6,00.0,31.3,24.0,11.7,0000.0,0004.43,0015.91,0002.65
2021-12-08 14:37:00,,0819.3,4.99,0.00,22.3,21.6,00.0,31.3,24.0,11.7,0000.0,0004.44,0016.04,0002.67
2021-12-08 14:38:00,,0819.3,4.99,0.00,22.3,21.6,00.0,31.3,24.0,11.8,0000.0,0004.49,0017.20,0002.70
2021-12-08 14:39:00,,0819.3,5.01,0.00,22.3,21.6,00.0,31.3,24.1,11.8,0000.0,0004.48,0017.31,0002.70
2021-12-08 14:40:00,,0819.3,4.99,0.00,22.3,21.6,00.0,31.3,24.1,11.8,0000.0,0004.48,0016.86,0002.71
2021-12-08 14:41:00,,0819.3,5.00,0.00,22.3,21.6,00.0,31.3,24.0,11.8,0000.0,0004.52,0017.12,0002.72
2021-12-08 14:42:00,,0819.3,5.00,0.00,22.3,21.6,00.0,31.3,24.1,11.8,0000.0,0004.54,0017.60,0002.74
2021-12-08 14:43:00,,0819.3,4.99,0.00,22.3,21.6,00.0,31.3,24.1,11.8,0000.0,0004.55,0017.19,0002.77
2021-12-08 14:44:00,,0819.4,5.00,0.00,22.3,21.6,00.0,31.3,24.1,11.7,0000.0,0004.60,0016.58,0002.78
2021-12-08 14:45:00,,0819.3,5.00,0.00,22.3,21.6,00.0,31.3,24.0,11.7,0000.0,0004.59,0015.86,0002.78
2021-12-08 14:46:00,,0819.3,4.99,0.00,22.3,21.6,00.0,31.3,24.1,11.8,0000.0,0004.55,0015.19,0002.78
2021-12-08 14:47:00,,0819.2,5.01,0.00,22.3,21.9,00.0,31.3,24.1,11.8,0000.0,0004.52,0014.35,0002.79
2021-12-08 14:48:00,,0819.3,5.00,0.00,22.5,22.7,00.0,31.4,24.4,11.7,0000.0,0004.54,0013.76,0002.80
2021-12-08 14:49:00,,0819.3,5.00,0.00,22.6,23.2,00.0,31.4,24.6,11.6,0000.0,0004.54,0013.25,0002.81
2021-12-08 14:50:00,,0819.3,5.00,0.00,22.7,23.0,00.0,31.4,24.6,11.5,0000.0,0004.52,0012.99,0002.80
2021-12-08 14:51:00,,0819.3,4.99,0.00,22.7,22.9,00.0,31.5,24.6,11.6,0000.0,0004.48,0012.98,0002.79
2021-12-08 14:52:00,,0819.3,5.00,0.00,22.7,22.7,00.0,31.5,24.6,11.5,0000.0,0004.47,0012.99,0002.80
2021-12-08 14:53:00,,0819.3,5.00,0.00,22.7,22.6,00.0,31.5,24.6,11.5,0000.0,0004.47,0012.36,0002.80
2021-12-08 14:54:00,,0819.3,4.98,0.00,22.7,22.5,00.0,31.5,24.6,11.5,0000.0,0004.47,0012.43,0002.77
2021-12-08 14:55:00,,0819.2,5.01,0.00,22.8,22.4,00.0,31.5,24.6,11.5,0000.0,0004.43,0012.55,0002.77
2021-12-08 14:56:00,,0819.2,5.00,0.00,22.8,22.4,00.0,31.6,24.6,11.5,0000.0,0004.42,0012.70,0002.80
2021-12-08 14:57:00,,0819.2,4.99,0.00,22.8,22.3,00.0,31.6,24.6,11.5,0000.0,0004.49,0013.81,0002.82
2021-12-08 14:58:00,,0819.3,5.01,0.00,22.8,22.3,00.0,31.6,24.7,11.5,0000.0,0004.55,0014.49,0002.83
2021-12-08 14:59:00,,0819.3,5.00,0.00,22.8,22.3,00.0,31.6,24.7,11.4,0000.0,0004.56,0014.84,0002.83
